DECAYED
Showing default

LEDSAT, 49069 (Decayed)

Orbit data source: Space-Track

LEDSAT, 49069 was a payload satellite owned by Roma La Sapienza (IT) in LEO that was launched on Tue, 17 Aug 2021 UTC via a VEGA launch vehicle from the French Guiana (FRGUI). Payload-class satellites include a variety of spacecraft equipped with specific instruments for various scientific and technological missions. These include communications satellites like Starlink; space stations such as the ISS; scientific satellites like the Hubble; Earth observation satellites from companies like Planet Labs, Umbra, and HawkEye 360; GPS; miniature CubeSats for education and research; and military/defense satellites.

Not visible in the next 10 days
Identifier
49069, 2021-073D
Orbit
Decayed
Country
Flag of ITIT
Related business
Manufacturer
Roma La Sapienza
Mission
Decayed Amateur Technology
Bus & Motor
CUBESAT 1U, Unknown motor
Mass
1 kg wet, ~1 kg dry
Launch date (UTC)
2021-08-17 (5 years ago)
Launch vehicle
VEGA
Launch site
French Guiana (FRGUI)
Object type
Payload
Rocket body
Debris
Shape & HBR
Box, 0.1 m
Radar Cross Section
0.015 m², Medium (>0.1 m² and < 1m²)

Expand to show TLE details & history
Last TLE update: 8 months ago

TLE from 8 months ago
0 LEDSAT
1 49069U 21073D   25287.95720868  .11134366  25314-5  40586-3 0  9991
2 49069  97.3489  17.4861 0013151 272.2565  87.7231 16.42992651231488
Epoch: 2025-10-14T22:58Z
TLE epoch observation values (Epoch: 2025-10-14T22:58:22.829Z)
Latitude
0.00002°
Longitude
9.15279°
Altitude
160.78 km
Speed
7.81 km/s
True Right ascension
01h 09m 56s
True Declination
0° 00' 00"
Sunlit
Object was in full shadow at epoch
Visualization orbit readout
Latitude
Unknown
Longitude
Unknown
Altitude
Unknown
Speed
Unknown
Apparent Right ascension
Unknown
Apparent Declination
Unknown
Sunlit
N/A
Visualization observer readout
Local Sidereal Time
21:32:45
Azimuth
Unknown
Elevation
Unknown
Doppler factor
Unknown
Orbital elements
Apogee altitude
163.246 km
Perigee altitude
146.064 km
Semi-major axis
6,532.792 km
Eccentricity
0.00132
Inclination
97.3489°
RAAN
17.4861°
Arg. of periapsis
272.2565°
True anomaly
87.87369°
Mean anomaly
87.7231°
Eccentric anomaly
87.79839°
Mean motion
4.1105 °/min
Orbital period
87.58 mins
BSTAR
0.00040586
Loading maneuver chart data...
Computing Atmospheric mass density...
Loading historical data...
Loading historical data...
Loading historical data...
Loading historical data...
Loading historical data...
Loading historical data...
Loading historical data...
Other satellites on launch #73 in the year 2021 (2021-08-17 UTC)

Documentation

Showing up to 5 results
|